Location: El Banqueo
(10.5289°N, 67.0444°W)
Time: 15:59:59
(UTC+00:00)

Meteor PRIRODA - Pass Details

Date: 18 April 2024
Orbit: 443 x 457 km, 97.5° (Epoch: 18 May)

Event Time Altitude Azimuth Distance (km) Brightness Sun altitude
Exits shadow 23:38:59 - 169° (S) 1,780 6.2 -15.1°
Reaches altitude 10° 23:39:27 10° 170° (S) 1,580 5.9 -15.2°
Maximum altitude 23:42:50 87° 259° (W) 458 3.4 -16.0°
Drops below altitude 10° 23:46:15 10° 348° (NNW) 1,592 6.5 -16.8°
Sets 23:48:17 0° 349° (NNW) 2,469 7.5 -17.3°
